Tracking 20232 objects as of 20-Jan-2020
HD Live streaming from Space Station
objects crossing your sky now

CZ-2C R/B

Track CZ-2C R/B now!
10-day predictions


NORAD ID: 43521
Int'l Code: 2018-054D
Perigee: 482.9 km
Apogee: 598.6 km
Inclination: 35.2 °
Period: 95.3 minutes
Semi major axis: 6911 km
RCS: Unknown
Launch date: June 27, 2018
Source: People's Republic of China (PRC)
Launch site: Xichang Space Center, China (XSC)

Note: This is a ROCKET BODY
aabbcc
Your satellite tracking list
Your tracking list is empty




NASA's NSSDC Master Catalog

Two Line Element Set (TLE):
1 43521U 18054D   20020.07793835  .00000397  00000-0  23584-4 0  9994
2 43521  35.1552  20.4437 0083710 240.3863 118.8490 15.10855702 86541
Source of the keplerian elements: AFSPC